Weather History for KACT - November, 2012

Change the Weather History Date:

Wednesday, November 7, 2012

  Actual Average Record
Temperature  
Mean Temperature 60 °F 61 °F  
Max Temperature 78 °F 72 °F 92 °F (1988)
Min Temperature 42 °F 50 °F 26 °F (1993)
Degree Days  
Heating Degree Days 5 6  
Month to date heating degree days 12 37  
Since 1 July heating degree days 122 104  
Cooling Degree Days 0 2  
Month to date cooling degree days 15 16  
Year to date cooling degree days 3186 2772  
Growing Degree Days 10 (Base 50)    
Moisture  
Dew Point 39 °F    
Average Humidity 56    
Maximum Humidity 89    
Minimum Humidity 22    
Precipitation  
Precipitation 0.00 in 0.10 in 1.21 in (1996)
Month to date precipitation T 0.74  
Year to date precipitation 31.53 29.86  
Snow  
Snow 0.00 in 0.00 in 0.00 in ()
Month to date snowfall 0.0 0.0  
Since 1 July snowfall 0.0 0.0  
Since 1 September snowfall 0.0 0.0  
Snow Depth 0.00 in    
Sea Level Pressure  
Sea Level Pressure 30.12 in    
Wind  
Wind Speed 5 mph (SE)    
Max Wind Speed 13 mph    
Max Gust Speed 16 mph    
Visibility 10 miles    
Events      
T = Trace of Precipitation, MM = Missing Value Source: NWS Daily Summary

Daily Weather History Graph

Daily Weather History Graph

Search for Another Location

Airport or City:

Trip Planner

Search our weather history database for the weather conditions in past years. The results will help you decide how hot, cold, wet, or windy it might be!

Date:

Astronomy

Nov. 07, 2012 Rise Set
Actual Time 6:50 AM CST 5:34 PM CST
Civil Twilight 6:24 AM CST 5:59 PM CST
Nautical Twilight 5:55 AM CST 6:28 PM CST
Astronomical Twilight 5:27 AM CST 6:57 PM CST
Moon 12:10 AM CST (11/7) 1:21 PM CST (11/7)
Length of Visible Light 11h 34m
Length of Day
10h 44m
Last Quarter, 43% of the Moon is Illuminated
Nov 7
Last Quarter
Nov 13
New
Nov 20
First Quarter
Nov 28
Full
Dec 6
Last Quarter

Hourly Weather History & Observations

Time (CST) Temp. Windchill Dew Point Humidity Pressure Visibility Wind Dir Wind Speed Gust Speed Precip Events Conditions
12:51 AM 48.0 °F - 42.1 °F 80% 30.11 in 10.0 mi Calm Calm - N/A   Clear
1:51 AM 50.0 °F - 41.0 °F 71% 30.12 in 10.0 mi Calm Calm - N/A   Clear
2:51 AM 48.0 °F - 43.0 °F 83% 30.13 in 10.0 mi Calm Calm - N/A   Clear
3:51 AM 50.0 °F - 44.1 °F 80% 30.12 in 10.0 mi NNW 5.8 mph - N/A   Clear
4:51 AM 44.1 °F 40.1 °F 39.9 °F 85% 30.13 in 10.0 mi North 6.9 mph - N/A   Clear
5:51 AM 46.4 °F 43.5 °F 41.0 °F 81% 30.15 in 10.0 mi North 5.8 mph - N/A   Clear
6:51 AM 42.1 °F 39.2 °F 39.0 °F 89% 30.16 in 10.0 mi West 4.6 mph - N/A   Clear
7:51 AM 52.0 °F - 44.1 °F 74% 30.18 in 10.0 mi WNW 4.6 mph - N/A   Clear
8:51 AM 61.0 °F - 41.0 °F 48% 30.19 in 10.0 mi Calm Calm - N/A   Clear
9:51 AM 66.2 °F - 39.2 °F 37% 30.21 in 10.0 mi Variable 4.6 mph - N/A   Clear
10:51 AM 70.0 °F - 37.0 °F 30% 30.19 in 10.0 mi Variable 3.5 mph - N/A   Clear
11:51 AM 73.4 °F - 33.8 °F 23% 30.17 in 10.0 mi Variable 4.6 mph - N/A   Clear
12:51 PM 75.2 °F - 35.6 °F 24% 30.12 in 10.0 mi Variable 4.6 mph - N/A   Clear
1:51 PM 75.9 °F - 36.0 °F 23% 30.09 in 10.0 mi SSW 6.9 mph - N/A   Clear
2:51 PM 77.0 °F - 36.0 °F 23% 30.07 in 10.0 mi Variable 4.6 mph - N/A   Clear
3:51 PM 77.0 °F - 36.0 °F 23% 30.06 in 10.0 mi South 4.6 mph - N/A   Clear
4:51 PM 75.2 °F - 35.6 °F 24% 30.07 in 10.0 mi SE 4.6 mph - N/A   Clear
5:51 PM 66.9 °F - 39.0 °F 36% 30.07 in 10.0 mi ESE 4.6 mph - N/A   Clear
6:51 PM 63.0 °F - 39.9 °F 43% 30.08 in 10.0 mi SE 5.8 mph - N/A   Clear
7:51 PM 60.1 °F - 39.9 °F 47% 30.09 in 10.0 mi ESE 5.8 mph - N/A   Clear
8:51 PM 59.0 °F - 39.0 °F 48% 30.09 in 10.0 mi ESE 5.8 mph - N/A   Clear
9:51 PM 57.9 °F - 39.0 °F 49% 30.10 in 10.0 mi ESE 5.8 mph - N/A   Clear
10:51 PM 62.6 °F - 39.2 °F 42% 30.10 in 10.0 mi SE 10.4 mph - N/A   Clear
11:51 PM 61.0 °F - 39.0 °F 44% 30.07 in 10.0 mi SSE 9.2 mph - N/A   Clear